Location: El Peñón
(10.3719°N, 67.3319°W)
Time: 03:58:12
(UTC+00:00)

Meteor 1-11 Rocket - Pass Details

Date: 13 June 2024
Orbit: 831 x 914 km, 81.2° (Epoch: 21 July)

Event Time Altitude Azimuth Distance (km) Brightness Sun altitude
Rises 23:26:42 0° 1° (N) 3,527 7.3 -8.7°
Reaches altitude 10° 23:29:12 10° 5° (N) 2,591 6.5 -9.3°
Maximum altitude 23:35:02 59° 84° (E) 1,047 3.9 -10.6°
Drops below altitude 10° 23:40:51 10° 163° (SSE) 2,593 5.8 -11.8°
Enters shadow 23:43:00 - 166° (SSE) 3,396 6.5 -12.3°
